Regional Weather Roundup
Issued by NWS

Home | Current Version | Previous Version | Graphics & Text | Print | Product List | Glossary On
Versions: 1 2 3 4 5 6 7 8 9 10 11 12 13 14 15 16 17 18 19 20 21 22 23 24 25 26 27 28 29 30 31 32 33 34 35 36 37 38 39 40 41 42 43 44 45 46 47 48 49 50
000
ASUS43 KBIS 041120
RWRND

NORTH DAKOTA REGIONAL WEATHER ROUNDUP
NATIONAL WEATHER SERVICE BISMARCK ND
500 AM CST WED MAR 04 2015

NOTE: "FAIR" INDICATES FEW OR NO CLOUDS BELOW 12,000 FEET WITH NO
SIGNIFICANT WEATHER AND/OR OBSTRUCTIONS TO VISIBILITY.


NDZ001>003-009>011-017-041200-
NORTHWEST NORTH DAKOTA

CITY           SKY/WX    TMP DP  RH WIND       PRES   REMARKS
WILLISTON      CLEAR     -9 -15  75 NW9       30.21R WCI -26
MINOT          FAIR      -9 -18  64 W14       30.13R WCI -30
MINOT AFB      CLEAR    -10 -17  70 NW18      30.14R WCI -35
$$

NDZ018>021-031>035-040>046-041200-
SOUTHWEST NORTH DAKOTA

CITY           SKY/WX    TMP DP  RH WIND       PRES   REMARKS
BISMARCK       CLEAR     -1 -10  65 NW15G23   30.16R WCI -21
DICKINSON      CLEAR     -4 -13  65 NW20      30.08R WCI -27
GARRISON         N/A     -9 -16  71 NW14      30.14R WCI -30
HETTINGER ARPT CLEAR     -2  -9  72 NW13      30.10R WCI -20
$$

NDZ004>008-012>016-024-026-027-054-041200-
NORTHEAST NORTH DAKOTA

CITY           SKY/WX    TMP DP  RH WIND       PRES   REMARKS
GRAND FORKS    CLEAR     -7 -14  71 NW9       30.11R WCI -24
GRND FRKS AFB  CLEAR     -7 -15  67 NW10      30.10R WCI -25
DEVILS LAKE    CLEAR     -9 -20  59 NW15      30.08R WCI -31
$$

NDZ022-023-025-028>030-036>039-047>053-041200-
SOUTHEAST NORTH DAKOTA

CITY           SKY/WX    TMP DP  RH WIND       PRES   REMARKS
FARGO          CLEAR     -3 -11  68 W9        30.12R WCI -19
JAMESTOWN      PTCLDY    -6 -11  79 NW8       30.08R WCI -21
$$



USA.gov is the U.S. government's official web portal to all federal, state and local government web resources and services.